Location: Nitra
(0.0000°N, 18.0833°E)
Time: 20:05:04
(UTC+02:00)

A-11 Canister half - Pass Details

Date: 08 April 2023
Orbit: 1526 x 1682 km, 47.3° (Epoch: 08 June)

Event Time Altitude Azimuth Distance (km) Brightness Sun altitude
Rises 22:05:25 0° 318° (NW) 4,787 12.1 -48.4°
Reaches altitude 10° 22:08:32 10° 317° (NW) 3,782 11.4 -49.2°
Enters shadow 22:12:50 31° 314° (NW) 2,478 10.2 -50.3°
Maximum altitude 22:18:06 80° 231° (SW) 1,571 - -51.5°
Drops below altitude 10° 22:27:27 10° 144° (SE) 3,698 - -53.8°
Sets 22:30:28 0° 143° (SE) 4,676 - -54.6°
